This demonstration page uses our WeatherBlox Daily Observations layout. Learn more.

Left ArrowRight Arrow

Hourly Observations for May 14, 2021

Temp ( °F °C ) Dew Point ( °F °C ) Humidity (%) Winds ( mph kmh ) Pressure ( in mb ) Visibility ( mi km ) Precip ( " mm )
12:15 am 00:15 Clear 48 9 41 5 76 76 N N/A 30.27 1025 10 16.0934 N/A
12:35 am 00:35 Partly Cloudy 50 10 41 5 71 71 N N/A 30.27 1025 10 16.0934 N/A
12:55 am 00:55 Partly Cloudy 48 9 41 5 76 76 N N/A 30.28 1025 10 16.0934 N/A
1:15 am 01:15 Clear 48 9 41 5 76 76 N N/A 30.27 1025 10 16.0934 N/A
1:35 am 01:35 Clear 48 9 41 5 76 76 W 3 6 30.27 1025 10 16.0934 N/A
1:55 am 01:55 Clear 46 8 41 5 82 82 W 3 6 30.27 1025 10 16.0934 N/A
2:15 am 02:15 Partly Cloudy 46 8 41 5 82 82 N N/A 30.27 1025 10 16.0934 N/A
2:35 am 02:35 Clear 45 7 41 5 87 87 N N/A 30.26 1025 10 16.0934 N/A
2:55 am 02:55 Clear 45 7 39 4 81 81 N N/A 30.26 1025 10 16.0934 N/A
3:15 am 03:15 Clear 45 7 39 4 81 81 WNW 3 6 30.26 1025 10 16.0934 N/A
3:35 am 03:35 Clear 45 7 39 4 81 81 N N/A 30.26 1025 10 16.0934 N/A
3:55 am 03:55 Clear 45 7 39 4 81 81 N N/A 30.26 1025 10 16.0934 N/A
4:15 am 04:15 Clear 43 6 41 5 93 93 N N/A 30.27 1025 10 16.0934 N/A
4:35 am 04:35 Clear 43 6 39 4 87 87 N N/A 30.27 1025 10 16.0934 N/A
4:55 am 04:55 Clear 41 5 39 4 93 93 NW 3 6 30.27 1025 10 16.0934 N/A
5:15 am 05:15 Clear 41 5 39 4 93 93 NNW 3 6 30.27 1025 10 16.0934 N/A
5:35 am 05:35 Clear 43 6 37 3 81 81 N 5 7 30.27 1025 10 16.0934 N/A
5:55 am 05:55 Clear 41 5 37 3 87 87 N 5 7 30.27 1025 10 16.0934 N/A
6:15 am 06:15 Sunny 41 5 37 3 87 87 N 3 6 30.27 1025 10 16.0934 N/A
6:35 am 06:35 Sunny 41 5 37 3 87 87 N N/A 30.28 1026 10 16.0934 N/A
6:55 am 06:55 Sunny 43 6 39 4 87 87 N N/A 30.29 1026 10 16.0934 N/A
7:15 am 07:15 Sunny 45 7 41 5 87 87 N N/A 30.29 1026 10 16.0934 N/A
7:35 am 07:35 Sunny 48 9 41 5 76 76 N N/A 30.3 1026 10 16.0934 N/A
7:55 am 07:55 Sunny 52 11 43 6 72 72 N N/A 30.29 1026 10 16.0934 N/A
8:15 am 08:15 Sunny 55 13 45 7 67 67 N N/A 30.3 1026 10 16.0934 N/A
8:35 am 08:35 Mostly Cloudy 59 15 41 5 51 51 NNW 6 9 30.3 1026 10 16.0934 N/A
8:55 am 08:55 Cloudy 61 16 39 4 45 45 N 7 11 30.31 1026 10 16.0934 N/A
9:15 am 09:15 Cloudy 61 16 39 4 45 45 NNW 7 11 30.31 1026 10 16.0934 N/A
9:35 am 09:35 Cloudy 61 16 41 5 48 48 NNW 7 11 30.31 1026 10 16.0934 N/A
9:55 am 09:55 Cloudy 63 17 37 3 39 39 N 6 9 30.31 1026 10 16.0934 N/A
10:15 am 10:15 Mostly Cloudy 63 17 39 4 42 42 NNE 3 6 30.3 1026 10 16.0934 N/A
10:35 am 10:35 Partly Cloudy 63 17 41 5 45 45 N N/A 30.3 1026 10 16.0934 N/A
10:55 am 10:55 Sunny 64 18 39 4 40 40 NE 5 7 30.29 1026 10 16.0934 N/A
11:15 am 11:15 Sunny 64 18 41 5 43 43 N 5 7 30.29 1026 10 16.0934 N/A
11:35 am 11:35 Sunny 68 20 39 4 35 35 N N/A 30.29 1026 10 16.0934 N/A
11:55 am 11:55 Sunny 68 20 37 3 33 33 SE 3 6 30.28 1025 10 16.0934 N/A
12:15 pm 12:15 Sunny 68 20 41 5 38 38 N N/A 30.28 1025 10 16.0934 N/A
12:35 pm 12:35 Partly Cloudy 70 21 36 2 29 29 ENE 3 6 30.27 1025 10 16.0934 N/A
12:55 pm 12:55 Mostly Cloudy 70 21 41 5 35 35 NNW 9 15 30.26 1025 10 16.0934 N/A
1:15 pm 13:15 Cloudy 68 20 34 1 28 28 NE 6 9 30.26 1025 10 16.0934 N/A
1:35 pm 13:35 Cloudy 68 20 36 2 30 30 NNE 6 9 30.26 1025 10 16.0934 N/A
1:55 pm 13:55 Partly Cloudy 68 20 37 3 33 33 NNW 10 17 30.26 1025 10 16.0934 N/A
2:15 pm 14:15 Partly Cloudy 70 21 37 3 31 31 N 9 15 30.25 1024 10 16.0934 N/A
2:35 pm 14:35 Partly Cloudy 68 20 37 3 33 33 NNW 5 7 30.25 1024 10 16.0934 N/A
2:55 pm 14:55 Cloudy 70 21 39 4 33 33 N 5 7 30.25 1024 10 16.0934 N/A
3:15 pm 15:15 Partly Cloudy 70 21 36 2 29 29 N N/A 30.24 1024 10 16.0934 N/A
3:35 pm 15:35 Partly Cloudy 72 22 37 3 29 29 NNE 7 11 30.24 1024 10 16.0934 N/A
3:55 pm 15:55 Partly Cloudy 70 21 37 3 31 31 W 6 9 30.23 1024 10 16.0934 N/A
4:15 pm 16:15 Partly Cloudy 70 21 36 2 29 29 NE 9 15 30.22 1023 10 16.0934 N/A
4:35 pm 16:35 Partly Cloudy 70 21 36 2 29 29 N N/A 30.22 1023 10 16.0934 N/A
4:55 pm 16:55 Partly Cloudy 70 21 36 2 29 29 NE 6 9 30.22 1023 10 16.0934 N/A
5:15 pm 17:15 Partly Cloudy 70 21 36 2 29 29 ESE 3 6 30.22 1023 10 16.0934 N/A
5:35 pm 17:35 Mostly Cloudy 70 21 37 3 31 31 N N/A 30.22 1023 10 16.0934 N/A
5:55 pm 17:55 Partly Cloudy 70 21 37 3 31 31 NW 3 6 30.21 1023 10 16.0934 N/A
6:15 pm 18:15 Sunny 68 20 36 2 30 30 NNW 6 9 30.21 1023 10 16.0934 N/A
6:35 pm 18:35 Partly Cloudy 66 19 41 5 40 40 WNW 6 9 30.21 1023 10 16.0934 N/A
6:55 pm 18:55 Partly Cloudy 66 19 39 4 37 37 WNW 7 11 30.21 1023 10 16.0934 N/A
7:15 pm 19:15 Sunny 66 19 41 5 40 40 WNW 5 7 30.21 1023 10 16.0934 N/A
7:35 pm 19:35 Sunny 64 18 41 5 43 43 W 3 6 30.21 1023 10 16.0934 N/A
7:55 pm 19:55 Sunny 64 18 41 5 43 43 W 3 6 30.21 1023 10 16.0934 N/A
8:15 pm 20:15 Sunny 63 17 41 5 45 45 W 3 6 30.23 1024 10 16.0934 N/A
8:35 pm 20:35 Partly Cloudy 61 16 41 5 48 48 W 5 7 30.23 1024 10 16.0934 N/A
8:55 pm 20:55 Partly Cloudy 61 16 41 5 48 48 W 5 7 30.23 1024 10 16.0934 N/A
9:15 pm 21:15 Clear 57 14 41 5 55 55 WSW 3 6 30.23 1024 10 16.0934 N/A
9:35 pm 21:35 Clear 55 13 43 6 63 63 W 3 6 30.24 1024 10 16.0934 N/A
9:55 pm 21:55 Clear 55 13 43 6 63 63 SW 3 6 30.24 1024 10 16.0934 N/A
10:15 pm 22:15 Clear 54 12 41 5 63 63 SW 5 7 30.25 1024 10 16.0934 N/A
10:35 pm 22:35 Clear 54 12 43 6 67 67 N N/A 30.25 1024 10 16.0934 N/A
10:55 pm 22:55 Clear 52 11 41 5 67 67 WSW 6 9 30.25 1025 10 16.0934 N/A
11:15 pm 23:15 Clear 54 12 41 5 63 63 SW 3 6 30.25 1024 10 16.0934 N/A
11:35 pm 23:35 Clear 54 12 43 6 67 67 SW 3 6 30.25 1024 10 16.0934 N/A
11:55 pm 23:55 Clear 52 11 41 5 67 67 WSW 5 7 30.25 1025 10 16.0934 N/A

Powered by AerisWeather